Flag for China Weather past 2 weeks in Zhengzhou, Henan, China

Now
79 °F

Clear.


Feels Like: 81 °F
Forecast: 74 / 91 °F
Wind: 3 mph from Southeast

Location: Zhengzhou Airport

Current Time: Aug 22, 2014 at 1:06:34 AM

Latest Report: Aug 22, 2014 at 12:00 AM


Visibility: 4 mi

Pressure: 29.80 "Hg

Humidity: 65%

Dew point: 66 °F

Location of ZhengzhouLocation

Historic Weather in Zhengzhou — Graph

°F

Zhengzhou temperature yesterday

Maximum temperature yesterday: 90 °F (at 1:00 PM)
Minimum temperature yesterday: 72 °F (at 5:00 AM)
Average temperature yesterday: 80 °F

Past Weeks' High & Low Weather Summary

 TemperatureHumidityPressure
High93 °F (Aug 15, 2:00 PM)100% (Aug 7, 3:00 AM)29.95 "Hg (Aug 7, 3:00 AM)
Low61 °F (Aug 9, 7:00 AM)28% (Aug 15, 2:00 PM)29.65 "Hg (Aug 10, 3:00 PM)
Average75 °F75%29.79 "Hg
* Reported Midnight between Aug 6 and Aug 7 — Midnight between Aug 21 and Aug 22, Zhengzhou, Weather by CustomWeather, © 2014

Note: Actual official high and low records may vary slightly from our data, if they occured in-between our weather recording intervals... More about our weather records

Advertising

Zhengzhou weather history for previous 24 hours

 ConditionsComfort  
Time TempWeatherWind HumidityBarometerVisibility
12:00 AM
Aug 22
79 °FClear.3 mph65%29.80 "Hg4 mi
11:00 PM
Aug 21
79 °FClear.1 mph65%29.80 "Hg4 mi
10:00 PM79 °FClear.3 mph65%29.80 "Hg4 mi
9:00 PM81 °FClear.1 mph62%29.77 "Hg4 mi
8:00 PM81 °FClear.3 mph62%29.77 "Hg4 mi
7:00 PM82 °FClear.3 mph55%29.74 "Hg5 mi
6:00 PM86 °FSunny.3 mph49%29.74 "Hg10 mi
5:00 PM88 °FPassing clouds.6 mph43%29.74 "HgN/A
4:00 PM88 °FClear.6 mph43%29.74 "Hg5 mi
3:00 PM90 °FPassing clouds.6 mph38%29.74 "Hg4 mi
2:00 PM90 °FPassing clouds.6 mph38%29.74 "Hg4 mi
1:00 PM90 °FPassing clouds.8 mph41%29.77 "Hg4 mi
12:00 PM88 °FClear.6 mph46%29.77 "Hg4 mi
11:00 AM86 °FClear.6 mph52%29.80 "Hg4 mi
10:00 AM82 °FClear.6 mph58%29.80 "Hg4 mi
9:00 AM79 °FHaze.6 mph65%29.80 "Hg2 mi
8:00 AM73 °FFog.3 mph89%29.80 "Hg1 mi
7:00 AM73 °FFog.6 mph89%29.80 "Hg1 mi
6:00 AM73 °FFog.6 mph83%29.77 "Hg1 mi
5:00 AM72 °FFog.3 mph88%29.77 "Hg1 mi
4:00 AM73 °FFog.3 mph83%29.77 "Hg2 mi
3:00 AM73 °FFog.3 mph83%29.77 "Hg2 mi
2:00 AM75 °FFog.3 mph78%29.80 "Hg2 mi
1:00 AM73 °FFog.1 mph89%29.80 "Hg2 mi
Weather by CustomWeather, © 2014

See weather overviewHow to use our weather pages